Simultaneous Nadir Overpasses (SNOs) Predictions

Prediction of SNOs between NOAA-20 and NOAA-19 Satellite Orbit:

Table of predicted SNOs for the next 14.0 days since TLE Epoch: 12/17/2022
Index Date (NOAA-20) Time (NOAA-20) Lat,Lon (NOAA-20) SZA (NOAA-20 ) Date (NOAA-19) Time (NOAA-19) Lat,Lon (NOAA-19) SZA (NOAA-19 ) Distance(km) Time Diff (sec)
1 12/24/2022 07:12:09 -75.96,-124.51 80.18 12/24/2022 07:10:57 -75.96,-124.61 80.16 2.99 72
2 12/24/2022 08:02:55 75.98, 42.76 99.84 12/24/2022 08:01:50 75.98, 42.74 99.86 0.67 65
3 12/24/2022 08:53:40 -76.01,-150.05 80.12 12/24/2022 08:52:56 -75.98,-150.02 80.14 3.69 44
4 12/24/2022 09:44:25 75.98, 17.38 99.84 12/24/2022 09:43:49 76.00, 17.34 99.88 2.92 36
5 12/24/2022 10:35:10 -76.02,-175.43 80.12 12/24/2022 10:34:55 -76.00,-175.43 80.13 1.15 15
6 12/24/2022 11:25:56 76.03, -8.16 99.90 12/24/2022 11:25:48 76.03, -8.07 99.89 2.34 8
7 12/24/2022 12:16:40 -76.02, 159.19 80.12 12/24/2022 12:16:54 -76.03, 159.17 80.11 1.41 14
8 12/24/2022 13:07:26 76.03, -33.54 99.90 12/24/2022 13:07:47 76.05, -33.48 99.91 3.01 21
9 12/24/2022 13:58:11 -76.07, 133.65 80.06 12/24/2022 13:58:53 -76.05, 133.76 80.09 3.38 42
10 12/24/2022 14:48:56 76.03, -58.92 99.90 12/24/2022 14:49:47 76.03, -59.04 99.90 3.22 51
11 12/24/2022 15:39:41 -76.07, 108.26 80.06 12/24/2022 15:40:52 -76.08, 108.36 80.07 2.79 71
12 12/24/2022 16:30:31 76.26, -85.10 100.18 12/24/2022 16:31:42 76.23, -83.79 100.04 34.99 71



Historial Predications of SNOs between NOAA-20 and NOAA-19
